cover

Liquid Phonk - I Don't Dance (Inland Knights Space Odyssey Mix)

Get it on iTunes StoreListen on Apple Music

Trackname / Key / BPM / Publish dateArtists, Remixers / Label
120 bpm, 8A / A minor, 2017-11-27, Deep House,  1  25

Tracks in release A Look Back At Something Different Vol. 5.2

#Trackname / Key / BPM / Publish dateArtists, Remixers / Label
1 122 bpm, 7B / F major, 2017-11-27, Deep House,  1  25
2 118 bpm, 8A / A minor, 2017-11-27, Deep House,  0  25
3 120 bpm, 7A / D minor, 2017-11-27, Tech House,  0  25
4 121 bpm, 8A / A minor, 2017-11-27, Tech House,  0  25
5 122 bpm, 8A / A minor, 2017-11-27, Deep House,  0  25
6 0 bpm, 8A / A minor, 2017-11-27, Deep House,  0  25
7 123 bpm, 11A / F# minor, 2017-11-27, Deep House,  0  25
8 120 bpm, 8A / A minor, 2017-11-27, Deep House,  1  25
9 120 bpm, 8A / A minor, 2017-11-27, Deep House,  0  25
10 125 bpm, 7A / D minor, 2017-11-27, Tech House,  0  25
11 123 bpm, 12A / Db minor, 2017-11-27, Deep House,  0  25
12 124 bpm, 5A / C minor, 2017-11-27, Deep House,  0  25
13 127 bpm, 8A / A minor, 2017-11-27, House,  0  25
14 125 bpm, 6B / Bb major, 2017-11-27, Deep House,  0  25
15 122 bpm, 2B / F# major, 2017-11-27, House,  0  25
16 121 bpm, 5B / Eb major, 2017-11-27, Deep House,  0  25
17 120 bpm, 3A / Bb minor, 2017-11-27, Deep House,  0  25
18 124 bpm, 9B / G major, 2017-11-27, Deep House,  0  25
19 120 bpm, 11B / A major, 2017-11-27, Deep House,  0  25
20 125 bpm, 9A / E minor, 2017-11-27, Deep House,  0  25
21 123 bpm, 6A / G minor, 2017-11-27, Deep House,  0  25
22 116 bpm, 2A / Eb minor, 2017-11-27, Deep House,  0  25
23 123 bpm, 2A / Eb minor, 2017-11-27, Deep House,  0  25
24 120 bpm, 5A / C minor, 2017-11-27, Deep House,  0  25
25 122 bpm, 7A / D minor, 2017-11-27, Deep House,  0  25

Recommendations

#Trackname / Key / BPM / Publish dateArtists, Remixers / Label
1 126 bpm, 11B / A major, 2014-12-08, Tech House,  32  1   6
2 123 bpm, 6A / G minor, 2017-10-27, Tech House,  21  1   4
3 124 bpm, 11B / A major, 2017-11-27, House,  7  1   3
4 122 bpm, 7A / D minor, 2017-11-17, Deep House,  6  1   3
5 121 bpm, 7A / D minor, 2017-11-03, Tech House,  3  1   2
6 126 bpm, 9B / G major, 2017-12-04, Dance,  2  1   1
7 123 bpm, 7A / D minor, 2017-10-27, Deep House,  1  1   3
8 120 bpm, 2A / Eb minor, 2017-11-20, House,  1  1   6
9 124 bpm, 8A / A minor, 2017-11-17, Minimal,  1  1   3

Charts

ArtistTitleGenresPublish date
Jon LeeFind A Way - November 2017 ChartHouse, Tech House, Deep House, Minimal, Dance 2017-11-30
×

Sign in

Sign in to access your personalized pages, follow artists and labels you love, and create playlists fromyour favorite tracks.

Please wait...